Voltar ao catálogo

ION SCV-016

AtivoCiênciaPO
NORAD 62628·PAYLOAD·🇮🇹 Italy

Lançado Jan 14, 2025 de Vandenberg Space Force Base

Loading…

Próximas Passagens (próximas 24 horas)

TLE

AtualizadoSource: Space-Track

Época: Sep 14, 2026, 01:58 UTC

1 62628U 25009V   26257.08250236  .00019116  00000-0  39695-3 0  9991
2 62628  97.4222 285.5947 0575173 184.4269 175.1719 14.54201569 88457

Acompanhe ION SCV-016 em tempo real com AllMySat

Download on the App Store